Private Wetterstation Kalkriese

Lat.: 52° 24' 26" Nord • Long.: 8° 04' 41" Ost • Höhe: 57 m ü. NN
Donnerstag, 25. Juli 2024 • 09:16:10 (UTC+2)

Tagesübersicht
Donnerstag, 25. Juli 2024


Werte bei Min., Max., etc. sind Tagesdaten (Beginn 00:00 Uhr), Diagramme zeigen den Verlauf der letzten 24 Stunden.
Wert in eckigen Klammern Min., Max., etc. der letzten 24 Std.

Letzte / Nächste Aktualisierung: 08:15 / 09:15

Außentemperatur (2 m ü. Erdboden)

 

Bodentemperatur (5 cm ü. Erdboden)

Minimum: 10,0 °C • 05:50 [ 10,0 °C • 05:50 ]   Minimum: 6,1 °C • 02:50 [ 6,1 °C • 02:50 ]
Maximum: 15,9 °C • 08:15 [ 22,3 °C • 15:35 ]   Maximum: 28,3 °C • 08:15 [ 35,0 °C • 15:30 ]
Durchschnitt: 11,5 °C [ 16,0 °C ]   Durchschnitt: 9,2 °C [ 16,0 °C ]
 
mini_currentt   mini_currentt2

Taupunkt

 

Windchill

Minimum: 9,6 °C • 05:50 [ 9,6 °C • 05:50 ]   Minimum: 10,1 °C • 05:50 [ 10,1 °C • 05:50 ]
Maximum: 14,9 °C • 08:15 [ 16,0 °C • 12:20 ]   Maximum: 15,9 °C • 08:15 [ 22,2 °C • 15:35 ]
Durchschnitt: 10,9 °C [ 13,2 °C ]   Durchschnitt: 11,5 °C [ 16,0 °C ]
 
mini_currenttp   mini_currentwc

Außenluftfeuchtigkeit

 

Luftdruck

Minimum: 94 % • 00:00 [ 58 % • 15:35 ]   Minimum: 1014,6 hPa • 07:55 [ 1014,6 hPa • 07:55 ]
Maximum: 97 % • 04:10 [ 97 % • 04:10 ]   Maximum: 1017,0 hPa • 00:00 [ 1018,3 hPa • 12:10 ]
Durchschnitt: 96 %   Durchschnitt: 1015,9 hPa
 
mini_currentf   mini_currentd

Niederschlag

 

 

heutiger Tag: 0,0 l/m²   akt. Woche: 22,6 l/m²
letzten 24 Std.: 0,0 l/m²   akt. Monat: 82,6 l/m²
Regendauer Tag: 0 Minuten   akt. Jahr: 553,0 l/m²
 
mini_currentr   mini_currentxt

Windgeschwindigkeit

 

Windböen

Maximum: 4,9 km/h • 2 Bft • S-SO • 07:55 [ 12,0 km/h • 18:30 ]   Maximum: 9,7 km/h • 4 Bft • W-SW • 08:15
Durchschnitt: 0,2 km/h • 1 Bft   Durchschnitt: 0,5 km/h • 1 Bft
Dom. Windrichtung: N-NW   Dom. Windrichtung: N-NW
 
mini_currentw   mini_currentwb
 
mini_currentwr   mini_currentwdg

Windrichtung • Windstärke • Windböen

 

 

ddis_f_current   ddis_current
 
windbft_current    

Wolkenuntergrenze (berechnet)

 

Theta-E / Äquivalenttemperatur

mini_currentcl   mini_currentt7


Wetterdaten Tagesverlauf

Stundenwerte akt. Tag
 
Uhrzeit Aussen-
temp.
+2 m
Boden-
temp.
+5 cm
ThetaE
 
 
Luft-
feuchte
 
Luft-
druck
 
Wind-
geschw.
 
Wind-
richtung
 
Solar
 
 
UV-I
 
 
Wolken-
untergrenze
 
Schnee-
fallgrenze
 
00:00 12,7 °C 8,3 °C 33,6 °C 94 % 1016,9 hPa 0,0 km/h N-NW 0 W/m² 0,0 118,0 m 2040,0 m
01:00 11,9 °C 7,2 °C 32,6 °C 95 % 1016,8 hPa 0,0 km/h N-NW 0 W/m² 0,0 97,0 m 1970,0 m
02:00 11,3 °C 6,7 °C 31,9 °C 95 % 1016,5 hPa 0,0 km/h N-NW 0 W/m² 0,0 77,0 m 1910,0 m
03:00 11,0 °C 6,7 °C 29,6 °C 96 % 1016,5 hPa 0,0 km/h N-NW 0 W/m² 0,0 76,0 m 1750,0 m
04:00 10,4 °C 7,8 °C 29,9 °C 96 % 1015,8 hPa 0,0 km/h N-NW 0 W/m² 0,0 77,0 m 1760,0 m
05:00 10,6 °C 6,1 °C 29,7 °C 97 % 1015,7 hPa 0,0 km/h N-NW 0 W/m² 0,0 76,0 m 1750,0 m
06:00 10,3 °C 6,7 °C 28,5 °C 97 % 1015,1 hPa 0,0 km/h N-NW 12 W/m² 0,0 57,0 m 1660,0 m
07:00 11,6 °C 14,4 °C 30,8 °C 97 % 1015,1 hPa 0,0 km/h N-NW 106 W/m² 0,0 57,0 m 1830,0 m
08:00 14,8 °C 23,9 °C 37,0 °C 96 % 1014,6 hPa 2,9 km/h SO 260 W/m² 0,6 58,0 m 2260,0 m
09:00 -- °C -- °C -- °C -- % -- hPa -- km/h -- -- W/m² -- -- m -- m
10:00 -- °C -- °C -- °C -- % -- hPa -- km/h -- -- W/m² -- -- m -- m
11:00 -- °C -- °C -- °C -- % -- hPa -- km/h -- -- W/m² -- -- m -- m
12:00 -- °C -- °C -- °C -- % -- hPa -- km/h -- -- W/m² -- -- m -- m
13:00 -- °C -- °C -- °C -- % -- hPa -- km/h -- -- W/m² -- -- m -- m
14:00 -- °C -- °C -- °C -- % -- hPa -- km/h -- -- W/m² -- -- m -- m
15:00 -- °C -- °C -- °C -- % -- hPa -- km/h -- -- W/m² -- -- m -- m
16:00 -- °C -- °C -- °C -- % -- hPa -- km/h -- -- W/m² -- -- m -- m
17:00 -- °C -- °C -- °C -- % -- hPa -- km/h -- -- W/m² -- -- m -- m
18:00 -- °C -- °C -- °C -- % -- hPa -- km/h -- -- W/m² -- -- m -- m
19:00 -- °C -- °C -- °C -- % -- hPa -- km/h -- -- W/m² -- -- m -- m
20:00 -- °C -- °C -- °C -- % -- hPa -- km/h -- -- W/m² -- -- m -- m
21:00 -- °C -- °C -- °C -- % -- hPa -- km/h -- -- W/m² -- -- m -- m
22:00 -- °C -- °C -- °C -- % -- hPa -- km/h -- -- W/m² -- -- m -- m
23:00 -- °C -- °C -- °C -- % -- hPa -- km/h -- -- W/m² -- -- m -- m


Wetterdaten Verlauf der letzten 24 Stunden

Stundenwerte
 
Uhrzeit Aussen-
temp.
+2 m
Boden-
temp.
+5 cm
ThetaE
 
 
Luft-
feuchte
 
Luft-
druck
 
Wind-
geschw.
 
Wind-
richtung
 
Solar
 
 
UV-I
 
 
Wolken-
untergrenze
 
Schnee-
fallgrenze
 
7:00 (vor 1 Std.) 12,3 °C 16,1 °C 31,9 °C 97 % 1015,0 hPa 0,0 km/h N-NW 141 W/m² 0,0 58,0 m 1910,0 m
6:00 (vor 2 Std.) 10,5 °C 7,2 °C 29,0 °C 97 % 1015,0 hPa 0,0 km/h N-NW 19 W/m² 0,0 57,0 m 1690,0 m
5:00 (vor 3 Std.) 10,4 °C 6,1 °C 29,6 °C 97 % 1015,7 hPa 0,0 km/h N-NW 0 W/m² 0,0 57,0 m 1740,0 m
4:00 (vor 4 Std.) 10,7 °C 7,2 °C 29,0 °C 96 % 1015,7 hPa 0,0 km/h N-NW 0 W/m² 0,0 76,0 m 1700,0 m
3:00 (vor 5 Std.) 10,9 °C 6,7 °C 30,3 °C 96 % 1016,3 hPa 0,0 km/h N-NW 0 W/m² 0,0 77,0 m 1800,0 m
2:00 (vor 6 Std.) 11,4 °C 6,7 °C 30,8 °C 96 % 1016,5 hPa 0,0 km/h N-NW 0 W/m² 0,0 96,0 m 1830,0 m
1:00 (vor 7 Std.) 11,8 °C 7,8 °C 32,2 °C 96 % 1016,7 hPa 0,0 km/h N-NW 0 W/m² 0,0 97,0 m 1930,0 m
0:00 (vor 8 Std.) 12,4 °C 7,8 °C 33,6 °C 94 % 1016,9 hPa 0,0 km/h N-NW 0 W/m² 0,0 118,0 m 2040,0 m
23:00 (vor 9 Std.) 13,2 °C 10,0 °C 35,0 °C 93 % 1017,2 hPa 0,0 km/h N-NW 0 W/m² 0,0 139,0 m 2140,0 m
22:00 (vor 10 Std.) 13,9 °C 10,6 °C 38,1 °C 89 % 1017,0 hPa 0,0 km/h N-NW 0 W/m² 0,0 314,0 m 2370,0 m
21:00 (vor 11 Std.) 17,2 °C 12,8 °C 41,5 °C 78 % 1016,8 hPa 0,0 km/h N-NW 13 W/m² 0,0 674,0 m 2760,0 m
20:00 (vor 12 Std.) 18,9 °C 17,8 °C 43,3 °C 71 % 1016,7 hPa 2,9 km/h W-NW 67 W/m² 0,0 674,0 m 2760,0 m
19:00 (vor 13 Std.) 20,2 °C 21,1 °C 44,2 °C 68 % 1016,7 hPa 9,3 km/h NW 279 W/m² 0,5 704,0 m 2830,0 m
18:00 (vor 14 Std.) 20,7 °C 26,7 °C 45,1 °C 69 % 1016,8 hPa 2,1 km/h W-NW 442 W/m² 1,1 793,0 m 2900,0 m
17:00 (vor 15 Std.) 20,2 °C 25,0 °C 45,8 °C 68 % 1017,1 hPa 5,1 km/h W-NW 254 W/m² 1,4 624,0 m 2910,0 m
16:00 (vor 16 Std.) 20,3 °C 26,1 °C 43,6 °C 67 % 1017,5 hPa 3,9 km/h W-SW 281 W/m² 1,6 943,0 m 2820,0 m
15:00 (vor 17 Std.) 19,8 °C 24,4 °C 45,4 °C 71 % 1017,7 hPa 2,5 km/h NW 280 W/m² 2,1 735,0 m 2910,0 m
14:00 (vor 18 Std.) 20,3 °C 30,0 °C 43,8 °C 72 % 1017,8 hPa 4,8 km/h W-SW 510 W/m² 3,6 675,0 m 2800,0 m
13:00 (vor 19 Std.) 19,8 °C 27,2 °C 44,7 °C 72 % 1017,9 hPa 7,2 km/h W 557 W/m² 3,2 622,0 m 2850,0 m
12:00 (vor 20 Std.) 18,4 °C 26,7 °C 44,3 °C 78 % 1018,3 hPa 3,7 km/h W-NW 319 W/m² 3,1 415,0 m 2790,0 m
11:00 (vor 21 Std.) 18,1 °C 25,0 °C 43,5 °C 81 % 1018,0 hPa 3,6 km/h N-NW 331 W/m² 1,9 414,0 m 2740,0 m
10:00 (vor 22 Std.) 17,6 °C 23,3 °C 43,7 °C 83 % 1018,0 hPa 6,4 km/h N 306 W/m² 1,6 319,0 m 2730,0 m
9:00 (vor 23 Std.) 16,7 °C 19,4 °C 43,1 °C 91 % 1017,8 hPa 4,2 km/h W 168 W/m² 0,8 185,0 m 2670,0 m
8:00 (vor 24 Std.) 16,9 °C 19,4 °C 43,6 °C 91 % 1017,6 hPa 0,5 km/h NW 82 W/m² 0,1 164,0 m 2700,0 m